Bryce Canyon, UT

1:34 AM MDT on June 28, 2017 (GMT -0600)
Bryce Canyon

Weather History for KBCE - February, 2013

Change the Weather History Date:

Tuesday, February 5, 2013

  Actual Average Record
Temperature  
Mean Temperature 27 °F -  
Max Temperature 42 °F 36 °F 57 °F (1963)
Min Temperature 12 °F 8 °F -19 °F (1982)
Degree Days  
Heating Degree Days 38    
Moisture  
Dew Point 15 °F    
Average Humidity 66    
Maximum Humidity 85    
Minimum Humidity 47    
Precipitation  
Precipitation 0.00 in - - ()
Sea Level Pressure  
Sea Level Pressure 30.07 in    
Wind  
Wind Speed 7 mph (SW)    
Max Wind Speed 13 mph    
Max Gust Speed -    
Visibility 10 miles    
Events      
Averages and records for this station are not official NWS values.
T = Trace of Precipitation, MM = Missing Value Source: NWS Daily Summary

Daily Weather History Graph

Daily Weather History Graph

Search for Another Location

Airport or City:

Trip Planner

Search our weather history database for the weather conditions in past years. The results will help you decide how hot, cold, wet, or windy it might be!

Date:

Astronomy

Feb. 05, 2013 Rise Set
Actual Time 7:28 AM MST 5:57 PM MST
Civil Twilight 7:01 AM MST 6:24 PM MST
Nautical Twilight 6:30 AM MST 6:55 PM MST
Astronomical Twilight 5:59 AM MST 7:26 PM MST
Moon 3:12 AM MST (2/5) 1:20 PM MST (2/5)
Length of Visible Light 11h 23m
Length of Day
10h 28m
Waning Crescent, 26% of the Moon is Illuminated
Feb 5
Waning Crescent
Feb 10
New
Feb 17
First Quarter
Feb 25
Full
Mar 4
Last Quarter

Hourly Weather History & Observations

Time (MST) Temp. Windchill Dew Point Humidity Pressure Visibility Wind Dir Wind Speed Gust Speed Precip Events Conditions
12:53 AM 15.1 °F 9.4 °F 8.1 °F 74% 30.10 in 10.0 mi West 3.5 mph - N/A   Clear
1:53 AM 16.0 °F 10.4 °F 8.1 °F 71% 30.09 in 10.0 mi West 3.5 mph - N/A   Clear
2:53 AM 17.1 °F 4.3 °F 8.1 °F 68% 30.08 in 10.0 mi West 11.5 mph - N/A   Clear
3:53 AM 15.1 °F 5.2 °F 7.0 °F 70% 30.08 in 10.0 mi West 6.9 mph - N/A   Clear
4:53 AM 15.1 °F 1.8 °F 7.0 °F 70% 30.10 in 10.0 mi West 11.5 mph - N/A   Clear
5:53 AM 14.0 °F 1.2 °F 6.1 °F 71% 30.13 in 10.0 mi West 10.4 mph - N/A   Clear
6:53 AM 12.9 °F 0.7 °F 6.1 °F 74% 30.17 in 10.0 mi West 9.2 mph - N/A   Clear
7:53 AM 15.1 °F 2.5 °F 7.0 °F 70% 30.18 in 10.0 mi West 10.4 mph - N/A   Clear
8:53 AM 19.9 °F 10.1 °F 10.0 °F 65% 30.17 in 10.0 mi West 8.1 mph - N/A   Clear
9:53 AM 27.0 °F - 14.0 °F 58% 30.16 in 10.0 mi Calm Calm - N/A   Clear
10:53 AM 36.0 °F 29.0 °F 19.9 °F 52% 30.11 in 10.0 mi SE 9.2 mph - N/A   Clear
11:53 AM 37.9 °F 34.4 °F 23.0 °F 55% 30.09 in 10.0 mi SE 4.6 mph - N/A   Clear
12:53 PM 39.9 °F 34.5 °F 21.0 °F 47% 30.05 in 10.0 mi SE 8.1 mph - N/A   Clear
1:53 PM 41.0 °F 34.3 °F 23.0 °F 49% 30.01 in 10.0 mi SSE 11.5 mph - N/A   Clear
2:53 PM 41.0 °F 35.2 °F 24.1 °F 51% 30.00 in 10.0 mi SE 9.2 mph - N/A   Clear
3:53 PM 42.1 °F 37.1 °F 24.1 °F 49% 29.99 in 10.0 mi SE 8.1 mph - N/A   Clear
4:53 PM 41.0 °F 35.2 °F 24.1 °F 51% 29.99 in 10.0 mi SE 9.2 mph - N/A   Clear
5:53 PM 36.0 °F 27.5 °F 24.1 °F 62% 30.01 in 10.0 mi SE 12.7 mph - N/A   Clear
6:53 PM 32.0 °F 25.6 °F 23.0 °F 69% 30.04 in 10.0 mi South 6.9 mph - N/A   Clear
7:53 PM 24.1 °F 19.7 °F 19.0 °F 81% 30.07 in 10.0 mi SSW 3.5 mph - N/A   Clear
8:53 PM 21.9 °F 15.7 °F 17.1 °F 82% 30.05 in 10.0 mi WSW 4.6 mph - N/A   Clear
9:53 PM 18.0 °F 12.7 °F 14.0 °F 84% 30.03 in 10.0 mi WNW 3.5 mph - N/A   Clear
10:53 PM 19.9 °F 14.9 °F 16.0 °F 85% 29.97 in 10.0 mi West 3.5 mph - N/A   Clear
11:53 PM 23.0 °F 14.7 °F 17.1 °F 78% 29.93 in 10.0 mi WNW 6.9 mph - N/A   Clear